Location: *
(55.6049°S, 142.1985°W)
Time: 08:19:12
(UTC+00:00)

CZ-4C R/B - Pass Details

Date: 12 May 2021
Orbit: 407 x 485 km, 97.7° (Epoch: 13 June)

Event Time Altitude Azimuth Distance (km) Brightness Sun altitude
Rises 15:48:53 0° 169° (S) 2,605 6.7 -11.8°
Reaches altitude 10° 15:51:02 10° 174° (S) 1,709 5.7 -11.5°
Maximum altitude 15:54:36 49° 249° (WSW) 642 3.2 -11.0°
Drops below altitude 10° 15:58:03 10° 324° (NW) 1,656 5.6 -10.5°
Sets 16:00:06 0° 329° (NNW) 2,514 6.6 -10.2°
